COSMOS 2251 DEB, 33916

Orbit data source: Space-Track

COSMOS 2251 DEB, 33916 is space debris in LEO originally from a launch on Wed, 16 Jun 1993 UTC launched from the Plesetsk Missile And Space Complex (PKMTR). The debris from Iridium 33, an American commercial communications satellite, has been tracked extensively since its accidental collision with the defunct Russian satellite Cosmos 2251 in 2009. This event, occurring at high speed in low Earth orbit (LEO), generated thousands of pieces of space debris, significantly increasing the risk of further collisions. The Iridium 33 debris cloud has impacted space traffic management and orbital debris mitigation strategies, making it a subject of ongoing study in space situational awareness.

Loading next visibility...
Identifier
33916, 1993-036DV
Orbit
LEO
Country
Flag of CISCIS
Related business
Manufacturer
Unknown
Mission
Spacecraft
Bus & Motor
Unknown
Mass
Unknown
Launch date (UTC)
1993-06-16 (32 years ago)
Launch vehicle
Unknown
Launch site
Plesetsk Missile And Space Complex (PKMTR)
Object type
Payload
Rocket body
Debris
Shape & HBR
Unknown shape, 0.2 m
Radar Cross Section
Medium (>0.1 m² and <1 m²)

Expand to show TLE details & history
Last TLE update: 7 hours ago

TLE from 7 hours ago
0 COSMOS 2251 DEB
1 33916U 93036DV  25299.82908252  .00000464  00000-0  39442-3 0  9995
2 33916  74.0493 117.6626 0324854 299.8712 177.9068 13.68531914832499
Epoch: 2025-10-26T19:53Z
TLE epoch observation values (Epoch: 2025-10-26T19:53:52.729Z)
Latitude
58.27542°
Longitude
-63.63523°
Altitude
1,254.036 km
Speed
7.115 km/s
True Right ascension
18h 01m 05s
True Declination
58° 07' 53"
Sunlit
Object was in daylight at epoch
Visualization orbit readout
Latitude
Unknown
Longitude
Unknown
Altitude
Unknown
Speed
Unknown
Apparent Right ascension
Unknown
Apparent Declination
Unknown
Sunlit
N/A
Visualization observer readout
Local Sidereal Time
21:56:12
Azimuth
Unknown
Elevation
Unknown
Doppler factor
Unknown
Orbital elements
Apogee altitude
1,242.305 km
Perigee altitude
762.777 km
Semi-major axis
7,380.678 km
Eccentricity
0.03249
Inclination
74.0493°
RAAN
117.6626°
Arg. of periapsis
299.8712°
True anomaly
178.03746°
Mean anomaly
177.9068°
Eccentric anomaly
177.97265°
Mean motion
3.42294 °/min
Orbital period
105.17 mins
BSTAR
0.00039442
Loading maneuver chart data...
Computing Atmospheric mass density...

Documentation

Showing up to 5 results
|